Tracking 33744 objects as of 12-Apr-2026
HD Live streaming from Space Station
objects crossing your sky now

STARLINK-5721

Track STARLINK-5721 now!
10-day predictions
STARLINK-5721 is classified as:


NORAD ID: 55617
Int'l Code: 2023-020BA
Perigee: 491.7 km
Apogee: 493.4 km
Inclination: 43.0 °
Period: 94.3 minutes
Semi major axis: 6863 km
RCS: Unknown
Launch date: February 12, 2023
Source: United States (US)
Launch site: AIR FORCE EASTERN TEST RANGE (AFETR)
Your satellite tracking list
Your tracking list is empty




NASA's NSSDC Master Catalog

Two Line Element Set (TLE):
1 55617U 23020BA  26102.22070808 -.00015939  00000-0 -58469-3 0  9993
2 55617  43.0024 164.3270 0001222 285.7585  74.3131 15.26801540174170
Source of the keplerian elements: AFSPC